Participated 6 times
Between 1983 and 1993
Laurent Biondi, France
Tour de France 2026 starts from Barcelona, Spain in

Stats and Facts from
Tour de France.

2026   2025   2024   2023  2022  2021  2020  2019   2018  2017   2016   2015  2014  2013   2012   2011  2010   2009   2008   2007   2006   2005   2004   2003   2002   2001   2000   1999   1998   1997  1996   1995   1994   1993   1992  1991   1990   1989   1988   1987   1986   1985   1984   1983  1982  1981   1980   1979  1978  1977   1976  1975  1974  1973   1972   1971   1970  1969   1968   1967   1966   1965  1964  1963   1962   1961   1960   1959   1958   1957  1956   1955   1954   1953   1952  1951  1950  1949   1948  1947  1939   1938   1937   1936   1935   1934   1933  1932   1931   1930  1929   1928   1927   1926  1925  1924  1923   1922   1921   1920   1919  1914   1913   1912   1911   1910  1909   1908   1907   1906  1905  1904   1903 

Tourstats
Sitemap

After stage 21 - 2025:
 16451 starters.
  5463 different riders.
  689 teams.
  2398 stages.
  470 restdays.
  466506.50 km.
  5925 abandoned riders.

Click map for 2016 route.
Facts from Tour de France 2016
  |   Stages.  |   Stage winners.  |   Days in jerseys.  |   Teams.  |   All riders.  |   All riders by age.  |   All riders from.  |  

  |   Rookies.  |   Withdrawls.  |   Average speed.  |   GC.  |   Polka  |   Green  |   White  |   Summits. (In tour)  |   Miscellaneous.  |  

Stage 5 on July 6th. 2016
Pick a stage:  1  2  3  4  5  6  7  8  9  10  11  12  13  14  15  16  17  18  19  20  21  

After stage 5:    Greg Van Avermaet    Greg Van Avermaet    Peter Sagan    Julian Alaphilippe  
  LimogesLe Lioran Cantal | Dist: 216.00km. | Winner: Greg Van Avermaet

Podium
4  Côte de Saint-Léonard-de-Noblat Jasper Stuyvenafter16.50 km.

3  Côte du Puy Saint-Mary Thomas De Gendtafter142.50 km.

3  Col de Nèronne Thomas De Gendtafter173.50 km.

2  Puy Mary Pas de Peyrol Thomas De Gendtafter185.00 km.

2  Col du Perthus Greg Van Avermaetafter201.50 km.

3  Col de Font de Cère Greg Van Avermaetafter213.50 km.


Average speed for all riders in stage:  36,959 km./hr.

1
 Greg Van Avermaet  BMC05h 31' 36"=39,083  km/h

2
 Thomas De Gendt  Lotto Soudal05h 34' 10"+  00:02:34 =38,783  km/h

3
 Rafał Majka  Tinkoff05h 36' 40"+  00:05:04 =38,495  km/h

4  Joaquin Rodriguez  Katusha05h 36' 40"+  00:05:04 =38,495  km/h

5  Dan Martin  Etixx-Quick Step05h 36' 43"+  00:05:07 =38,489  km/h

6  Bartosz Huzarski  Bora-Argon 1805h 36' 43"+  00:05:07 =38,489  km/h

7  Julian Alaphilippe  Etixx-Quick Step05h 36' 43"+  00:05:07 =38,489  km/h

8  Adam Yates  ORICA BikeExchange05h 36' 43"+  00:05:07 =38,489  km/h

9  Chris Froome  Sky Procycling05h 36' 43"+  00:05:07 =38,489  km/h

10  Tejay Van Garderen  BMC05h 36' 43"+  00:05:07 =38,489  km/h

11  Pierre Rolland  Cannondale Pro Cycling05h 36' 43"+  00:05:07 =38,489  km/h

12  Richie Porte  BMC05h 36' 43"+  00:05:07 =38,489  km/h

13  Romain Bardet  AG2R La Mondiale05h 36' 43"+  00:05:07 =38,489  km/h

14  Sébastien Reichenbach  FDJ05h 36' 43"+  00:05:07 =38,489  km/h

15  Nairo Quintana  Movistar05h 36' 43"+  00:05:07 =38,489  km/h

16  Wilco Kelderman  Lotto NL-Jumbo05h 36' 43"+  00:05:07 =38,489  km/h

17  Bauke Mollema  Trek-Segafredo05h 36' 43"+  00:05:07 =38,489  km/h

18  Fabio Aru  Astana Pro Team05h 36' 43"+  00:05:07 =38,489  km/h

19  Sergio Henao  Sky Procycling05h 36' 43"+  00:05:07 =38,489  km/h

20  Warren Barguil  Giant-Alpecin05h 36' 43"+  00:05:07 =38,489  km/h

21  Thibaut Pinot  FDJ05h 36' 43"+  00:05:07 =38,489  km/h

22  Alejandro Valverde  Movistar05h 36' 43"+  00:05:07 =38,489  km/h

23  Louis Meintjes  Lampre-Merida05h 36' 43"+  00:05:07 =38,489  km/h

24  Jurgen Van Den Broeck  Katusha05h 36' 52"+  00:05:16 =38,472  km/h

25  Roman Kreuziger  Tinkoff05h 36' 54"+  00:05:18 =38,468  km/h

26  Mikel Nieve  Sky Procycling05h 36' 57"+  00:05:21 =38,463  km/h

27  Geraint Thomas  Sky Procycling05h 36' 59"+  00:05:23 =38,459  km/h

28  Andriy Grivko  Astana Pro Team05h 37' 02"+  00:05:26 =38,453  km/h

29  Daniel Moreno  Movistar05h 37' 12"+  00:05:36 =38,434  km/h

30  Alberto Contador  Tinkoff05h 37' 16"+  00:05:40 =38,427  km/h

31  Mathias Frank  IAM Cycling05h 37' 24"+  00:05:48 =38,411  km/h

32  Serge Pauwels  Dimension Data05h 37' 39"+  00:06:03 =38,383  km/h

33  Cyril Gautier  AG2R La Mondiale05h 38' 00"+  00:06:24 =38,343  km/h

34  Damiano Caruso  BMC05h 38' 55"+  00:07:19 =38,239  km/h

35  Stef Clement  IAM Cycling05h 39' 53"+  00:08:17 =38,131  km/h

36  Emanuel Buchmann  Bora-Argon 1805h 39' 53"+  00:08:17 =38,131  km/h

37  Domenico Pozzovivo  AG2R La Mondiale05h 39' 53"+  00:08:17 =38,131  km/h

38  Fabrice Jeandesboz  Direct Energie05h 39' 53"+  00:08:17 =38,131  km/h

39  Tanel Kangert  Astana Pro Team05h 39' 53"+  00:08:17 =38,131  km/h

40  Diego Rosa  Astana Pro Team05h 39' 53"+  00:08:17 =38,131  km/h

41  Haimar  Zubeldía  Trek-Segafredo05h 39' 53"+  00:08:17 =38,131  km/h

42  Eduardo Sepulveda  Fortuneo-Vital Concept05h 39' 53"+  00:08:17 =37,058  km/h

43  Alexis Vuillermoz  AG2R La Mondiale05h 41' 54"+  00:10:18 =37,906  km/h

44  Fränk Schleck  Trek-Segafredo05h 41' 54"+  00:10:18 =37,906  km/h

45  Patrick Konrad  Bora-Argon 1805h 41' 54"+  00:10:18 =37,906  km/h

46  Steve Morabito  FDJ05h 41' 54"+  00:10:18 =37,906  km/h

47  Jan Bakelants  AG2R La Mondiale05h 41' 54"+  00:10:18 =37,906  km/h

48  Tom-Jelte Slagter  Cannondale Pro Cycling05h 44' 11"+  00:12:35 =37,654  km/h

49  Jarlinson Pantano  IAM Cycling05h 44' 37"+  00:13:01 =37,607  km/h

50  Luis León Sánchez  Astana Pro Team05h 44' 37"+  00:13:01 =37,607  km/h

52  Luis Angel Mate  Cofidis – Solutions Crédits05h 44' 37"+  00:13:01 =37,607  km/h

53  Chris Anker Sørensen  Fortuneo-Vital Concept05h 44' 37"+  00:13:01 =37,607  km/h

54  Arnold Jeannesson  Cofidis – Solutions Crédits05h 44' 37"+  00:13:01 =37,607  km/h

55  Mikaël Cherel  AG2R La Mondiale05h 44' 37"+  00:13:01 =37,607  km/h

51  Florian Vachon  Fortuneo-Vital Concept05h 44' 41"+  00:13:05 =37,600  km/h

56  Jérémy Roy  FDJ05h 45' 12"+  00:13:36 =37,543  km/h

57  Georg Preidler  Giant-Alpecin05h 45' 21"+  00:13:45 =37,527  km/h

58  Lawson Craddock  Cannondale Pro Cycling05h 45' 21"+  00:13:45 =37,527  km/h

59  Peter Stetina  Trek-Segafredo05h 45' 21"+  00:13:45 =37,527  km/h

60  Rui Costa  Lampre-Merida05h 45' 21"+  00:13:45 =37,527  km/h

61  Alberto Losada  Katusha05h 45' 21"+  00:13:45 =37,527  km/h

62  Ilnur Zakarin  Katusha05h 45' 21"+  00:13:45 =37,527  km/h

63  Martin Elmiger  IAM Cycling05h 45' 21"+  00:13:45 =37,527  km/h

64  Ben Gastauer  AG2R La Mondiale05h 45' 21"+  00:13:45 =37,527  km/h

65  Tony Martin  Etixx-Quick Step05h 45' 21"+  00:13:45 =37,527  km/h

66  Daniel Navarro  Cofidis – Solutions Crédits05h 45' 21"+  00:13:45 =37,527  km/h

67  Paolo Tiralongo  Astana Pro Team05h 45' 21"+  00:13:45 =37,527  km/h

68  Vincenzo Nibali  Astana Pro Team05h 45' 21"+  00:13:45 =37,527  km/h

69  Laurens Ten Dam  Giant-Alpecin05h 45' 21"+  00:13:45 =37,527  km/h

70  Amaël Moinard  BMC05h 45' 21"+  00:13:45 =37,527  km/h

71  Daryl Impey  ORICA BikeExchange05h 45' 21"+  00:13:45 =37,527  km/h

72  Alex Howes  Cannondale Pro Cycling05h 45' 21"+  00:13:45 =37,527  km/h

73  Tsgabu Grmay  Lampre-Merida05h 45' 21"+  00:13:45 =37,527  km/h

74  Robert Kišerlovski  Tinkoff05h 45' 21"+  00:13:45 =37,527  km/h

75  Mikel Landa  Sky Procycling05h 45' 30"+  00:13:54 =37,511  km/h

76  Simon Geschke  Giant-Alpecin05h 45' 36"+  00:14:00 =37,500  km/h

77  Thomas  Voeckler  Direct Energie05h 46' 34"+  00:14:58 =37,395  km/h

78  Wout Poels  Sky Procycling05h 49' 35"+  00:17:59 =37,073  km/h

79  George Bennett  Lotto NL-Jumbo05h 49' 35"+  00:17:59 =37,073  km/h

80  Romain Sicard  Direct Energie05h 50' 38"+  00:19:02 =36,962  km/h

81  Pierre-Luc Périchon  Fortuneo-Vital Concept05h 52' 41"+  00:21:05 =36,747  km/h

82  Winner Anacona  Movistar05h 55' 21"+  00:23:45 =36,471  km/h

83  Ion Izagirre  Movistar05h 55' 21"+  00:23:45 =36,471  km/h

84  Adam Hansen  Lotto Soudal05h 55' 21"+  00:23:45 =36,471  km/h

85  Marcus Burghardt  BMC05h 55' 21"+  00:23:45 =36,471  km/h

86  Oliver Naesen  IAM Cycling05h 55' 21"+  00:23:45 =36,471  km/h

87  Michael Schär  BMC05h 55' 21"+  00:23:45 =36,471  km/h

88  Rohan Dennis  BMC05h 55' 21"+  00:23:45 =36,471  km/h

89  Bert-Jan Lindeman  Lotto NL-Jumbo05h 55' 21"+  00:23:45 =36,471  km/h

90  Arthur Vichot  FDJ05h 55' 21"+  00:23:45 =36,471  km/h

91  Anthony Roux  FDJ05h 55' 21"+  00:23:45 =36,471  km/h

92  Jakob Fuglsang  Astana Pro Team05h 55' 21"+  00:23:45 =36,471  km/h

93  Brice Feillu  Fortuneo-Vital Concept05h 55' 21"+  00:23:45 =36,471  km/h

94  Nicolas Edet  Cofidis – Solutions Crédits05h 55' 21"+  00:23:45 =36,471  km/h

95  Jan Bárta  Bora-Argon 1805h 55' 21"+  00:23:45 =36,471  km/h

96  Vasil Kiryienka  Sky Procycling05h 55' 21"+  00:23:45 =36,471  km/h

97  Roy Curvers  Giant-Alpecin05h 55' 21"+  00:23:45 =36,471  km/h

98  Tom Dumoulin  Giant-Alpecin05h 55' 21"+  00:23:45 =36,471  km/h

99  Gorka Izagirre  Movistar05h 55' 21"+  00:23:45 =36,471  km/h

100  Paul Voss  Bora-Argon 1805h 55' 21"+  00:23:45 =36,471  km/h

101  Matthieu Ladagnous  FDJ05h 55' 21"+  00:23:45 =36,471  km/h

102  Kristijan Ðurasek  Lampre-Merida05h 55' 21"+  00:23:45 =36,471  km/h

103  Luka Pibernik  Lampre-Merida05h 55' 21"+  00:23:45 =36,471  km/h

104  Jesus Herrada  Movistar05h 55' 21"+  00:23:45 =36,471  km/h

105  Christopher Juul Jensen  ORICA BikeExchange05h 55' 21"+  00:23:45 =36,471  km/h

106  Alexey Lutsenko  Astana Pro Team05h 55' 21"+  00:23:45 =36,471  km/h

107  Jérôme Cousin  Cofidis – Solutions Crédits05h 55' 21"+  00:23:45 =36,471  km/h

108  Rubén Plaza  ORICA BikeExchange05h 55' 21"+  00:23:45 =36,471  km/h

109  Sylvain Chavanel  Direct Energie05h 55' 21"+  00:23:45 =36,471  km/h

110  Peter Sagan  Tinkoff05h 55' 21"+  00:23:45 =36,471  km/h

111  Dylan Van Baarle  Cannondale Pro Cycling05h 56' 50"+  00:25:14 =36,319  km/h

112  Daniel Teklehaimanot  Dimension Data05h 56' 50"+  00:25:14 =36,319  km/h

113  Markel Irizar  Trek-Segafredo05h 56' 50"+  00:25:14 =36,319  km/h

114  Nelson Oliveira  Movistar05h 56' 50"+  00:25:14 =36,319  km/h

115  Ángel Vicioso  Katusha05h 56' 50"+  00:25:14 =36,319  km/h

116  Imanol Erviti  Movistar05h 56' 50"+  00:25:14 =36,319  km/h

117  Simon Gerrans  ORICA BikeExchange05h 56' 50"+  00:25:14 =36,319  km/h

118  Julien Vermote  Etixx-Quick Step05h 56' 50"+  00:25:14 =36,319  km/h

119  Paul Martens  Lotto NL-Jumbo05h 56' 50"+  00:25:14 =36,319  km/h

120  Mathew Hayman  ORICA BikeExchange05h 56' 50"+  00:25:14 =36,319  km/h

121  Brent Bookwalter  BMC05h 56' 50"+  00:25:14 =36,319  km/h

122  Luke Durbridge  ORICA BikeExchange05h 56' 50"+  00:25:14 =36,319  km/h

123  Cédric Pineau  FDJ05h 56' 50"+  00:25:14 =36,319  km/h

124  Jérôme Coppel  IAM Cycling05h 56' 50"+  00:25:14 =36,319  km/h

125  Armindo Fonseca  Fortuneo-Vital Concept05h 56' 50"+  00:25:14 =36,319  km/h

126  Matti Breschel  Cannondale Pro Cycling05h 56' 50"+  00:25:14 =36,319  km/h

127  Gregory Rast  Trek-Segafredo05h 56' 50"+  00:25:14 =36,319  km/h

128  Reto Hollenstein  IAM Cycling05h 56' 50"+  00:25:14 =36,319  km/h

129  Anthony Delaplace  Fortuneo-Vital Concept05h 56' 50"+  00:25:14 =36,319  km/h

130  Antoine Duchesne  Direct Energie05h 56' 50"+  00:25:14 =36,319  km/h

131  Jacopo Guarnieri  Katusha05h 56' 50"+  00:25:14 =36,319  km/h

132  Matteo Bono  Lampre-Merida05h 56' 50"+  00:25:14 =36,319  km/h

133  Cesare Benedetti  Bora-Argon 1805h 56' 50"+  00:25:14 =36,319  km/h

134  Fabian Cancellara  Trek-Segafredo05h 56' 50"+  00:25:14 =36,319  km/h

135  Tony Gallopin  Lotto Soudal05h 56' 50"+  00:25:14 =36,319  km/h

136  William  Bonnet  FDJ05h 56' 50"+  00:25:14 =36,319  km/h

137  Maarten Wynants  Lotto NL-Jumbo05h 56' 50"+  00:25:14 =36,319  km/h

138  Geoffrey Soupe  Cofidis – Solutions Crédits05h 56' 50"+  00:25:14 =36,319  km/h

139  Robert Wagner  Lotto NL-Jumbo05h 56' 50"+  00:25:14 =36,319  km/h

140  Kristjan Koren  Cannondale Pro Cycling05h 56' 50"+  00:25:14 =36,319  km/h

141  Fabio Sabatini  Etixx-Quick Step05h 56' 50"+  00:25:14 =36,319  km/h

142  Matteo Tosatto  Tinkoff05h 56' 50"+  00:25:14 =36,319  km/h

143  Petr Vakoč  Etixx-Quick Step05h 56' 50"+  00:25:14 =36,319  km/h

144  Reinardt Janse Van Rensburg  Dimension Data05h 56' 50"+  00:25:14 =36,319  km/h

145  Edvald Boasson Hagen  Dimension Data05h 56' 50"+  00:25:14 =36,319  km/h

146  Vegard Breen  Fortuneo-Vital Concept05h 56' 50"+  00:25:14 =36,319  km/h

147  John Degenkolb  Giant-Alpecin05h 56' 50"+  00:25:14 =36,319  km/h

148  Marcel Kittel  Etixx-Quick Step05h 56' 50"+  00:25:14 =36,319  km/h

149  André Greipel  Lotto Soudal05h 56' 50"+  00:25:14 =36,319  km/h

150  Samuel Dumoulin  AG2R La Mondiale05h 56' 50"+  00:25:14 =36,319  km/h

151  Iljo Keisse  Etixx-Quick Step05h 56' 50"+  00:25:14 =36,319  km/h

152  Ramūnas Navardauskas  Cannondale Pro Cycling05h 56' 50"+  00:25:14 =36,319  km/h

153  Alexis Gougeard  AG2R La Mondiale05h 56' 50"+  00:25:14 =36,319  km/h

154  Michael Albasini  ORICA BikeExchange05h 56' 50"+  00:25:14 =36,319  km/h

155  Andreas Schillinger  Bora-Argon 1805h 56' 50"+  00:25:14 =36,319  km/h

156  Adrien Petit  Direct Energie05h 56' 50"+  00:25:14 =36,319  km/h

157  Timo Roosen  Lotto NL-Jumbo05h 56' 50"+  00:25:14 =36,319  km/h

158  Maciej Bodnar  Tinkoff05h 56' 50"+  00:25:14 =36,319  km/h

159  Ian Stannard  Sky Procycling05h 56' 50"+  00:25:14 =36,319  km/h

160  Stephen Cummings  Dimension Data05h 56' 50"+  00:25:14 =36,319  km/h

161  Gregory Henderson  Lotto Soudal05h 56' 50"+  00:25:14 =36,319  km/h

162  Michael Matthews  ORICA BikeExchange05h 56' 50"+  00:25:14 =36,319  km/h

163  Jürgen Roelandts  Lotto Soudal05h 56' 50"+  00:25:14 =36,319  km/h

164  Michael Valgren  Tinkoff05h 56' 50"+  00:25:14 =36,319  km/h

165  Jasper Stuyven  Trek-Segafredo05h 56' 50"+  00:25:14 =36,319  km/h

166  Jens Debusschere  Lotto Soudal05h 56' 50"+  00:25:14 =36,319  km/h

167  Edward Theuns  Trek-Segafredo05h 56' 50"+  00:25:14 =36,319  km/h

168  Sep Vanmarcke  Lotto NL-Jumbo05h 56' 50"+  00:25:14 =36,319  km/h

169  Sebastian Langeveld  Cannondale Pro Cycling05h 56' 50"+  00:25:14 =36,319  km/h

170  Maximiliano Richeze  Etixx-Quick Step05h 56' 50"+  00:25:14 =36,319  km/h

171  Yukiya  Arashiro  Lampre-Merida05h 56' 50"+  00:25:14 =36,319  km/h

172  Sondre Holst Enger  IAM Cycling05h 56' 50"+  00:25:14 =36,319  km/h

173  Luke Rowe  Sky Procycling05h 57' 20"+  00:25:44 =36,269  km/h

174  Christophe Laporte  Cofidis – Solutions Crédits05h 57' 35"+  00:25:59 =36,243  km/h

175  Cyril Lemoine  Cofidis – Solutions Crédits05h 57' 35"+  00:25:59 =36,243  km/h

176  Albert Timmer  Giant-Alpecin05h 57' 37"+  00:26:01 =36,240  km/h

177  Oscar Gatto  Tinkoff05h 59' 34"+  00:27:58 =36,043  km/h

178  Bryan Coquard  Direct Energie06h 00' 10"+  00:28:34 =35,983  km/h

179  Mark Renshaw  Dimension Data06h 00' 10"+  00:28:34 =35,983  km/h

180  Bernhard Eisel  Dimension Data06h 00' 10"+  00:28:34 =35,983  km/h

181  Ramon Sinkeldam  Giant-Alpecin06h 00' 10"+  00:28:34 =35,983  km/h

182  Mark Cavendish  Dimension Data06h 00' 10"+  00:28:34 =35,983  km/h

183  Dylan Groenewegen  Lotto NL-Jumbo06h 00' 10"+  00:28:34 =35,983  km/h

184  Daniel McLay  Fortuneo-Vital Concept06h 00' 10"+  00:28:34 =35,983  km/h

185  Borut Božič  Cofidis – Solutions Crédits06h 00' 10"+  00:28:34 =35,983  km/h

186  Jan Polanc  Lampre-Merida06h 00' 10"+  00:28:34 =35,983  km/h

187  Natnael Berhane  Dimension Data06h 00' 10"+  00:28:34 =35,983  km/h

188  Yohann Gène  Direct Energie06h 00' 10"+  00:28:34 =35,983  km/h

189  Marcel Sieberg  Lotto Soudal06h 00' 10"+  00:28:34 =35,983  km/h

190  Lars Bak  Lotto Soudal06h 00' 10"+  00:28:34 =35,983  km/h

191  Alexander Kristoff  Katusha06h 00' 10"+  00:28:34 =35,983  km/h

192  Davide Cimolai  Lampre-Merida06h 00' 10"+  00:28:34 =35,983  km/h

193  Sam Bennett  Bora-Argon 1806h 00' 10"+  00:28:34 =35,983  km/h

194  Leigh Howard  IAM Cycling06h 00' 10"+  00:28:34 =35,983  km/h

195  Marco Haller  Katusha06h 00' 10"+  00:28:34 =35,983  km/h

196  Shane Archbold  Bora-Argon 1806h 00' 10"+  00:28:34 =35,983  km/h

197  Angelo Tulik  Direct Energie06h 00' 10"+  00:28:34 =35,983  km/h

198  Michael Mørkøv  Katusha06h 04' 50"+  00:33:14 =35,523  km/h


Todays birthdays.

1888 • Giuseppe Contesini
1911 • Edmond Pages
1935 • Eddy Pauwels
1940 • Julien Haelterman
1958 • Luc Colijn
1962 • Jean-François Bernard
1984 • Yann Huguet
1993 • Owain Doull

 

Optimized for Chrome - Edge
and Opera browsers.